Weather History for Scottsdale, AZ

Change the Weather History Date:

Wednesday, October 10, 2012

  Actual Average Record
Temperature  
Mean Temperature 80 °F -  
Max Temperature 90 °F 87 °F 100 °F (1996)
Min Temperature 70 °F 64 °F 53 °F (2013)
Cooling Degree Days 15    
Growing Degree Days 30 (Base 50)    
Moisture  
Dew Point 45 °F    
Average Humidity 31    
Maximum Humidity 47    
Minimum Humidity 15    
Precipitation  
Precipitation 0.00 in - - ()
Sea Level Pressure  
Sea Level Pressure 29.84 in    
Wind  
Wind Speed 3 mph (South)    
Max Wind Speed 8 mph    
Max Gust Speed -    
Visibility 10 miles    
Events      
Averages and records for this station are not official NWS values.
T = Trace of Precipitation, MM = Missing Value Source: NWS Daily Summary

Daily Weather History Graph

Daily Weather History Graph

Search for Another Location

Airport:

Trip Planner

Search our weather history database for the weather conditions in past years. The results will help you decide how hot, cold, wet, or windy it might be!

Date:

Astronomy

Oct. 10, 2012 Rise Set
Actual Time 6:29 AM MST 5:59 PM MST
Civil Twilight 6:04 AM MST 6:24 PM MST
Nautical Twilight 5:35 AM MST 6:53 PM MST
Astronomical Twilight 5:06 AM MST 7:22 PM MST
Moon 1:23 AM MST (10/10) 2:51 PM MST (10/10)
Length of Visible Light 12h 20m
Length of Day
11h 30m
Waning Crescent, 26% of the Moon is Illuminated
Oct 10
Waning Crescent
Oct 15
New
Oct 21
First Quarter
Oct 29
Full
Nov 6
Last Quarter

Hourly Weather History & Observations

Time (MST) Temp. Dew Point Humidity Pressure Visibility Wind Dir Wind Speed Gust Speed Precip Events Conditions
12:53 AM 75.0 °F 48.0 °F 38% 29.87 in 10.0 mi NE 3.5 mph - N/A   Clear
1:53 AM 73.9 °F 48.0 °F 40% 29.88 in 10.0 mi Calm Calm - N/A   Clear
2:53 AM 73.9 °F 48.9 °F 41% 29.86 in 10.0 mi Calm Calm - N/A   Clear
3:53 AM 70.0 °F 48.9 °F 47% 29.88 in 10.0 mi Calm Calm - N/A   Clear
4:53 AM 70.0 °F 46.0 °F 42% 29.89 in 10.0 mi Calm Calm - N/A   Clear
5:53 AM 70.0 °F 46.0 °F 42% 29.91 in 10.0 mi Calm Calm - N/A   Clear
6:53 AM 70.0 °F 46.9 °F 44% 29.91 in 10.0 mi Calm Calm - N/A   Clear
7:53 AM 73.9 °F 48.0 °F 40% 29.92 in 10.0 mi Calm Calm - N/A   Clear
8:53 AM 79.0 °F 51.1 °F 38% 29.93 in 10.0 mi South 3.5 mph - N/A   Clear
9:53 AM 81.0 °F 51.1 °F 35% 29.92 in 10.0 mi Variable 5.8 mph - N/A   Clear
10:53 AM 82.9 °F 51.1 °F 33% 29.91 in 10.0 mi Calm Calm - N/A   Clear
11:53 AM 86.0 °F 48.0 °F 27% 29.88 in 10.0 mi South 8.1 mph - N/A   Clear
12:53 PM 87.1 °F 48.0 °F 26% 29.84 in 10.0 mi SSW 6.9 mph - N/A   Clear
1:53 PM 89.1 °F 46.9 °F 23% 29.81 in 10.0 mi South 8.1 mph - N/A   Clear
2:53 PM 89.1 °F 41.0 °F 19% 29.80 in 10.0 mi South 6.9 mph - N/A   Clear
3:53 PM 90.0 °F 37.0 °F 15% 29.78 in 10.0 mi South 5.8 mph - N/A   Clear
4:53 PM 89.1 °F 37.9 °F 16% 29.77 in 10.0 mi SE 6.9 mph - N/A   Clear
5:53 PM 87.1 °F 39.0 °F 18% 29.75 in 10.0 mi East 4.6 mph - N/A   Clear
6:53 PM 84.9 °F 39.0 °F 20% 29.76 in 10.0 mi Calm Calm - N/A   Clear
7:53 PM 82.9 °F 39.0 °F 21% 29.76 in 10.0 mi Calm Calm - N/A   Clear
8:53 PM 81.0 °F 43.0 °F 26% 29.78 in 10.0 mi SW 5.8 mph - N/A   Clear
9:53 PM 80.1 °F 45.0 °F 29% 29.79 in 10.0 mi West 4.6 mph - N/A   Clear
10:53 PM 78.1 °F 45.0 °F 31% 29.80 in 10.0 mi North 3.5 mph - N/A   Clear
11:53 PM 77.0 °F 46.0 °F 33% 29.80 in 10.0 mi Calm Calm - N/A   Clear